Time,TemperatureF,DewpointF,PressureIn,WindDirection,WindDirectionDegrees,WindSpeedMPH,WindSpeedGustMPH,Humidity,HourlyPrecipIn,Conditions,Clouds,dailyrainin,SoftwareType,DateUTC
2013-04-25 00:00:00,46.7,27.5,30.00,SW,220,4.0,9.0,47,-99.99,,,0.00,1-wire,2013-04-25 05:00:00,
2013-04-25 00:06:00,46.6,29.0,30.00,West,262,5.0,9.0,50,-99.99,,,0.00,1-wire,2013-04-25 05:06:00,
2013-04-25 00:11:00,45.8,30.6,30.00,West,262,8.0,13.0,55,-99.99,,,0.00,1-wire,2013-04-25 05:11:00,
2013-04-25 00:17:00,45.3,31.5,30.00,West,262,6.0,14.0,58,-99.99,,,0.00,1-wire,2013-04-25 05:17:00,
2013-04-25 00:22:00,45.2,31.9,29.99,West,261,4.0,8.0,59,-99.99,,,0.00,1-wire,2013-04-25 05:22:00,
2013-04-25 00:27:00,45.1,32.1,29.99,West,261,6.0,11.0,60,-99.99,,,0.00,1-wire,2013-04-25 05:27:00,
2013-04-25 00:32:00,44.6,32.8,29.99,West,261,5.0,11.0,63,-99.99,,,0.00,1-wire,2013-04-25 05:32:00,
2013-04-25 00:37:00,44.2,32.4,29.99,WSW,250,7.0,14.0,63,-99.99,,,0.00,1-wire,2013-04-25 05:37:00,
2013-04-25 00:42:00,44.2,32.5,29.99,WSW,250,3.0,6.0,63,-99.99,,,0.00,1-wire,2013-04-25 05:42:00,
2013-04-25 00:47:00,44.3,32.7,29.99,WSW,250,5.0,13.0,64,-99.99,,,0.00,1-wire,2013-04-25 05:47:00,
2013-04-25 00:52:00,44.0,32.6,29.99,WSW,256,4.0,6.0,64,-99.99,,,0.00,1-wire,2013-04-25 05:52:00,
2013-04-25 00:57:00,44.0,32.5,29.99,WSW,256,7.0,11.0,64,-99.99,,,0.00,1-wire,2013-04-25 05:57:00,
2013-04-25 01:02:00,44.1,32.5,29.99,WSW,256,5.0,9.0,64,-99.99,,,0.00,1-wire,2013-04-25 06:02:00,
2013-04-25 01:07:00,44.3,32.7,29.99,SW,221,5.0,9.0,63,-99.99,,,0.00,1-wire,2013-04-25 06:07:00,
2013-04-25 01:12:00,44.2,32.7,29.98,SW,221,5.0,10.0,64,-99.99,,,0.00,1-wire,2013-04-25 06:12:00,
2013-04-25 01:17:00,44.1,32.7,29.99,SW,221,6.0,9.0,64,-99.99,,,0.00,1-wire,2013-04-25 06:17:00,
2013-04-25 01:22:00,43.8,32.3,29.98,SW,227,6.0,9.0,64,-99.99,,,0.00,1-wire,2013-04-25 06:22:00,
2013-04-25 01:27:00,43.9,32.4,29.98,SW,227,3.0,8.0,64,-99.99,,,0.00,1-wire,2013-04-25 06:27:00,
2013-04-25 01:32:00,43.7,32.2,29.98,SW,227,4.0,8.0,64,-99.99,,,0.00,1-wire,2013-04-25 06:32:00,
2013-04-25 01:37:00,43.7,32.3,29.98,SW,236,6.0,14.0,64,-99.99,,,0.00,1-wire,2013-04-25 06:37:00,
2013-04-25 01:42:00,43.5,32.3,29.97,SW,236,4.0,8.0,65,-99.99,,,0.00,1-wire,2013-04-25 06:42:00,
2013-04-25 01:47:00,43.3,32.4,29.98,SW,236,5.0,8.0,65,-99.99,,,0.00,1-wire,2013-04-25 06:47:00,
2013-04-25 01:52:00,43.2,32.7,29.97,SW,227,4.0,9.0,66,-99.99,,,0.00,1-wire,2013-04-25 06:52:00,
2013-04-25 01:57:00,42.7,32.5,29.98,SW,227,5.0,10.0,67,-99.99,,,0.00,1-wire,2013-04-25 06:57:00,
2013-04-25 02:02:00,42.4,32.6,29.98,SW,227,6.0,10.0,68,-99.99,,,0.00,1-wire,2013-04-25 07:02:00,
2013-04-25 02:07:00,42.4,32.9,29.99,WSW,244,6.0,10.0,69,-99.99,,,0.00,1-wire,2013-04-25 07:07:00,
2013-04-25 02:12:00,42.3,33.0,29.98,WSW,244,3.0,9.0,69,-99.99,,,0.00,1-wire,2013-04-25 07:12:00,
2013-04-25 02:17:00,42.1,33.0,29.98,WSW,244,5.0,9.0,70,-99.99,,,0.00,1-wire,2013-04-25 07:17:00,
2013-04-25 02:22:00,42.5,33.5,29.98,WSW,238,3.0,6.0,70,-99.99,,,0.00,1-wire,2013-04-25 07:22:00,
2013-04-25 02:27:00,42.3,33.6,29.98,WSW,238,5.0,8.0,71,-99.99,,,0.00,1-wire,2013-04-25 07:27:00,
2013-04-25 02:33:00,42.1,33.6,29.97,WSW,238,3.0,6.0,72,-99.99,,,0.00,1-wire,2013-04-25 07:33:00,
2013-04-25 02:38:00,41.9,33.6,29.97,WSW,238,6.0,11.0,72,-99.99,,,0.00,1-wire,2013-04-25 07:38:00,
2013-04-25 02:43:00,41.8,33.7,29.97,WSW,238,3.0,6.0,73,-99.99,,,0.00,1-wire,2013-04-25 07:43:00,
2013-04-25 02:48:00,41.7,33.9,29.97,WSW,238,5.0,9.0,73,-99.99,,,0.00,1-wire,2013-04-25 07:48:00,
2013-04-25 02:53:00,41.5,33.8,29.97,WSW,239,5.0,9.0,74,-99.99,,,0.00,1-wire,2013-04-25 07:53:00,
2013-04-25 02:58:00,41.3,33.8,29.97,WSW,239,5.0,11.0,75,-99.99,,,0.00,1-wire,2013-04-25 07:58:00,
2013-04-25 03:03:00,41.1,33.8,29.97,WSW,239,6.0,10.0,75,-99.99,,,0.00,1-wire,2013-04-25 08:03:00,
2013-04-25 03:09:00,41.1,33.8,29.97,WSW,242,5.0,11.0,75,-99.99,,,0.00,1-wire,2013-04-25 08:09:00,
2013-04-25 03:14:00,41.1,33.7,29.97,WSW,242,5.0,11.0,75,-99.99,,,0.00,1-wire,2013-04-25 08:14:00,
2013-04-25 03:20:00,41.0,33.6,29.97,WSW,242,6.0,13.0,75,-99.99,,,0.00,1-wire,2013-04-25 08:20:00,
2013-04-25 03:25:00,41.0,33.4,29.98,WSW,243,6.0,11.0,74,-99.99,,,0.00,1-wire,2013-04-25 08:25:00,
2013-04-25 03:31:00,41.1,33.4,29.98,WSW,243,6.0,16.0,74,-99.99,,,0.00,1-wire,2013-04-25 08:31:00,
2013-04-25 03:37:00,41.1,33.3,29.98,WSW,248,4.0,6.0,73,-99.99,,,0.00,1-wire,2013-04-25 08:37:00,
2013-04-25 03:42:00,41.3,33.3,29.98,WSW,248,4.0,13.0,73,-99.99,,,0.00,1-wire,2013-04-25 08:42:00,
2013-04-25 03:48:00,41.4,33.0,29.99,WSW,248,3.0,6.0,72,-99.99,,,0.00,1-wire,2013-04-25 08:48:00,
2013-04-25 03:53:00,41.3,32.8,29.99,WSW,254,4.0,10.0,72,-99.99,,,0.00,1-wire,2013-04-25 08:53:00,
2013-04-25 03:58:00,41.1,32.4,29.99,WSW,254,6.0,9.0,71,-99.99,,,0.00,1-wire,2013-04-25 08:58:00,
2013-04-25 04:03:00,40.9,31.3,29.99,WSW,254,5.0,9.0,68,-99.99,,,0.00,1-wire,2013-04-25 09:03:00,
2013-04-25 04:08:00,40.9,31.2,29.99,West,277,4.0,6.0,68,-99.99,,,0.00,1-wire,2013-04-25 09:08:00,
2013-04-25 04:13:00,40.8,31.3,29.99,West,277,2.0,6.0,69,-99.99,,,0.00,1-wire,2013-04-25 09:13:00,
2013-04-25 04:18:00,40.5,31.1,30.00,West,277,3.0,6.0,69,-99.99,,,0.00,1-wire,2013-04-25 09:18:00,
2013-04-25 04:23:00,40.4,31.0,30.00,WNW,292,3.0,10.0,69,-99.99,,,0.00,1-wire,2013-04-25 09:23:00,
2013-04-25 04:28:00,40.0,30.8,30.00,WNW,292,5.0,9.0,69,-99.99,,,0.00,1-wire,2013-04-25 09:28:00,
2013-04-25 04:33:00,39.8,30.7,30.01,WNW,292,4.0,10.0,69,-99.99,,,0.00,1-wire,2013-04-25 09:33:00,
2013-04-25 04:38:00,40.0,30.8,30.01,WNW,285,6.0,11.0,69,-99.99,,,0.00,1-wire,2013-04-25 09:38:00,
2013-04-25 04:43:00,40.2,31.0,30.01,WNW,285,1.0,3.0,69,-99.99,,,0.00,1-wire,2013-04-25 09:43:00,
2013-04-25 04:48:00,39.8,30.8,30.01,WNW,285,4.0,6.0,70,-99.99,,,0.00,1-wire,2013-04-25 09:48:00,
2013-04-25 04:53:00,39.9,31.0,30.01,West,279,3.0,6.0,70,-99.99,,,0.00,1-wire,2013-04-25 09:53:00,
2013-04-25 04:58:00,39.8,30.9,30.01,West,279,5.0,9.0,70,-99.99,,,0.00,1-wire,2013-04-25 09:58:00,
2013-04-25 05:03:00,39.8,31.0,30.01,West,279,3.0,6.0,71,-99.99,,,0.00,1-wire,2013-04-25 10:03:00,
2013-04-25 05:08:00,39.9,31.0,30.01,West,280,3.0,6.0,70,-99.99,,,0.00,1-wire,2013-04-25 10:08:00,
2013-04-25 05:13:00,39.8,30.9,30.02,West,280,3.0,6.0,70,-99.99,,,0.00,1-wire,2013-04-25 10:13:00,
2013-04-25 05:18:00,39.9,31.2,30.02,West,280,2.0,6.0,71,-99.99,,,0.00,1-wire,2013-04-25 10:18:00,
2013-04-25 05:23:00,39.6,30.8,30.02,WNW,284,3.0,6.0,71,-99.99,,,0.00,1-wire,2013-04-25 10:23:00,
2013-04-25 05:28:00,39.5,30.9,30.03,WNW,284,2.0,6.0,71,-99.99,,,0.00,1-wire,2013-04-25 10:28:00,
2013-04-25 05:33:00,39.5,30.7,30.03,WNW,284,5.0,10.0,71,-99.99,,,0.00,1-wire,2013-04-25 10:33:00,
2013-04-25 05:38:00,39.6,30.6,30.03,WNW,283,5.0,11.0,70,-99.99,,,0.00,1-wire,2013-04-25 10:38:00,
2013-04-25 05:43:00,39.6,30.7,30.03,WNW,283,3.0,8.0,70,-99.99,,,0.00,1-wire,2013-04-25 10:43:00,
2013-04-25 05:48:00,39.6,30.8,30.03,WNW,283,5.0,11.0,71,-99.99,,,0.00,1-wire,2013-04-25 10:48:00,
2013-04-25 05:53:00,39.3,30.7,30.03,WNW,282,5.0,11.0,71,-99.99,,,0.00,1-wire,2013-04-25 10:53:00,
2013-04-25 05:58:00,39.4,30.8,30.04,WNW,282,3.0,8.0,71,-99.99,,,0.00,1-wire,2013-04-25 10:58:00,
2013-04-25 06:03:00,39.2,30.7,30.04,WNW,282,4.0,11.0,71,-99.99,,,0.00,1-wire,2013-04-25 11:03:00,
2013-04-25 06:08:00,39.2,30.8,30.04,WNW,288,4.0,8.0,71,-99.99,,,0.00,1-wire,2013-04-25 11:08:00,
2013-04-25 06:13:00,39.0,30.6,30.05,WNW,288,2.0,6.0,72,-99.99,,,0.00,1-wire,2013-04-25 11:13:00,
2013-04-25 06:18:00,39.3,31.0,30.05,WNW,288,3.0,6.0,72,-99.99,,,0.00,1-wire,2013-04-25 11:18:00,
2013-04-25 06:24:00,39.0,30.9,30.05,WNW,287,2.0,6.0,72,-99.99,,,0.00,1-wire,2013-04-25 11:24:00,
2013-04-25 06:29:00,39.5,31.3,30.05,WNW,287,0.0,0.0,72,-99.99,,,0.00,1-wire,2013-04-25 11:29:00,
2013-04-25 06:35:00,39.3,31.4,30.05,WNW,287,3.0,8.0,73,-99.99,,,0.00,1-wire,2013-04-25 11:35:00,
2013-04-25 06:40:00,39.2,31.4,30.06,WNW,284,3.0,6.0,73,-99.99,,,0.00,1-wire,2013-04-25 11:40:00,
2013-04-25 06:46:00,38.8,31.2,30.07,WNW,284,3.0,8.0,74,-99.99,,,0.00,1-wire,2013-04-25 11:46:00,
2013-04-25 06:51:00,39.2,31.6,30.07,WNW,284,3.0,6.0,74,-99.99,,,0.00,1-wire,2013-04-25 11:51:00,
2013-04-25 06:57:00,39.1,31.4,30.07,WNW,284,5.0,9.0,74,-99.99,,,0.00,1-wire,2013-04-25 11:57:00,
2013-04-25 07:03:00,39.1,31.4,30.07,WNW,284,2.0,6.0,73,-99.99,,,0.00,1-wire,2013-04-25 12:03:00,
2013-04-25 07:08:00,38.8,31.3,30.07,West,276,6.0,9.0,74,-99.99,,,0.00,1-wire,2013-04-25 12:08:00,
2013-04-25 07:14:00,38.8,31.8,30.08,West,276,5.0,9.0,76,-99.99,,,0.00,1-wire,2013-04-25 12:14:00,
2013-04-25 07:19:00,38.8,32.0,30.08,West,276,5.0,11.0,76,-99.99,,,0.00,1-wire,2013-04-25 12:19:00,
2013-04-25 07:24:00,39.3,32.7,30.09,West,281,3.0,6.0,77,-99.99,,,0.00,1-wire,2013-04-25 12:24:00,
2013-04-25 07:29:00,39.2,32.7,30.09,West,281,2.0,6.0,77,-99.99,,,0.00,1-wire,2013-04-25 12:29:00,
2013-04-25 07:34:00,39.4,33.2,30.10,West,281,1.0,3.0,78,-99.99,,,0.00,1-wire,2013-04-25 12:34:00,
2013-04-25 07:39:00,39.2,32.6,30.10,WNW,283,2.0,6.0,77,-99.99,,,0.00,1-wire,2013-04-25 12:39:00,
2013-04-25 07:44:00,39.1,32.2,30.10,WNW,283,4.0,6.0,76,-99.99,,,0.00,1-wire,2013-04-25 12:44:00,
2013-04-25 07:49:00,39.2,32.3,30.10,WNW,283,5.0,9.0,76,-99.99,,,0.00,1-wire,2013-04-25 12:49:00,
2013-04-25 07:54:00,39.5,32.6,30.10,WNW,287,3.0,6.0,76,-99.99,,,0.00,1-wire,2013-04-25 12:54:00,
2013-04-25 07:59:00,39.5,32.7,30.11,WNW,287,1.0,6.0,76,-99.99,,,0.00,1-wire,2013-04-25 12:59:00,
2013-04-25 08:04:00,39.2,32.4,30.11,WNW,287,6.0,11.0,76,-99.99,,,0.00,1-wire,2013-04-25 13:04:00,
2013-04-25 08:09:00,39.2,32.6,30.11,WNW,290,2.0,6.0,77,-99.99,,,0.00,1-wire,2013-04-25 13:09:00,
2013-04-25 08:14:00,39.0,32.6,30.12,WNW,290,3.0,6.0,78,-99.99,,,0.00,1-wire,2013-04-25 13:14:00,
2013-04-25 08:19:00,38.7,32.3,30.12,WNW,290,5.0,11.0,78,-99.99,,,0.00,1-wire,2013-04-25 13:19:00,
2013-04-25 08:24:00,39.6,33.3,30.12,WNW,282,1.0,3.0,78,-99.99,,,0.00,1-wire,2013-04-25 13:24:00,
2013-04-25 08:29:00,39.8,33.2,30.12,WNW,282,3.0,8.0,77,-99.99,,,0.00,1-wire,2013-04-25 13:29:00,
2013-04-25 08:34:00,41.0,34.1,30.12,WNW,282,4.0,9.0,76,-99.99,,,0.00,1-wire,2013-04-25 13:34:00,
2013-04-25 08:39:00,40.8,33.4,30.13,WNW,285,2.0,6.0,75,-99.99,,,0.00,1-wire,2013-04-25 13:39:00,
2013-04-25 08:44:00,40.6,33.3,30.13,WNW,285,4.0,11.0,75,-99.99,,,0.00,1-wire,2013-04-25 13:44:00,
2013-04-25 08:49:00,41.0,33.4,30.13,WNW,285,1.0,3.0,74,-99.99,,,0.00,1-wire,2013-04-25 13:49:00,
2013-04-25 08:54:00,41.4,33.0,30.13,WNW,282,6.0,10.0,72,-99.99,,,0.00,1-wire,2013-04-25 13:54:00,
2013-04-25 08:59:00,40.8,32.4,30.13,WNW,282,4.0,6.0,72,-99.99,,,0.00,1-wire,2013-04-25 13:59:00,
2013-04-25 09:04:00,41.1,32.6,30.14,WNW,282,6.0,11.0,71,-99.99,,,0.00,1-wire,2013-04-25 14:04:00,
2013-04-25 09:09:00,42.3,33.6,30.14,WNW,288,3.0,8.0,71,-99.99,,,0.00,1-wire,2013-04-25 14:09:00,
2013-04-25 09:14:00,41.4,32.6,30.14,WNW,288,4.0,9.0,70,-99.99,,,0.00,1-wire,2013-04-25 14:14:00,
2013-04-25 09:20:00,42.5,32.6,30.14,WNW,288,5.0,10.0,68,-99.99,,,0.00,1-wire,2013-04-25 14:20:00,
2013-04-25 09:25:00,42.7,32.8,30.14,WNW,293,3.0,6.0,68,-99.99,,,0.00,1-wire,2013-04-25 14:25:00,
2013-04-25 09:31:00,42.9,32.7,30.14,WNW,293,7.0,11.0,67,-99.99,,,0.00,1-wire,2013-04-25 14:31:00,
2013-04-25 09:36:00,42.8,32.2,30.15,NW,306,6.0,11.0,66,-99.99,,,0.00,1-wire,2013-04-25 14:36:00,
2013-04-25 09:41:00,42.5,32.1,30.15,NW,306,5.0,11.0,66,-99.99,,,0.00,1-wire,2013-04-25 14:41:00,
2013-04-25 09:47:00,42.2,31.5,30.16,NW,306,3.0,6.0,66,-99.99,,,0.00,1-wire,2013-04-25 14:47:00,
2013-04-25 09:52:00,42.4,31.9,30.16,WNW,299,4.0,9.0,66,-99.99,,,0.00,1-wire,2013-04-25 14:52:00,
2013-04-25 09:57:00,43.1,32.2,30.16,WNW,299,3.0,9.0,65,-99.99,,,0.00,1-wire,2013-04-25 14:57:00,
2013-04-25 10:03:00,43.7,32.1,30.16,WNW,299,4.0,10.0,63,-99.99,,,0.00,1-wire,2013-04-25 15:03:00,
2013-04-25 10:08:00,42.5,31.7,30.16,WNW,292,9.0,17.0,65,-99.99,,,0.00,1-wire,2013-04-25 15:08:00,
2013-04-25 10:14:00,42.0,31.8,30.17,WNW,292,5.0,13.0,67,-99.99,,,0.00,1-wire,2013-04-25 15:14:00,
2013-04-25 10:19:00,41.5,31.5,30.17,WNW,292,6.0,14.0,67,-99.99,,,0.00,1-wire,2013-04-25 15:19:00,
2013-04-25 10:24:00,42.0,31.5,30.18,WNW,284,4.0,8.0,66,-99.99,,,0.00,1-wire,2013-04-25 15:24:00,
2013-04-25 10:29:00,43.0,32.1,30.18,WNW,284,4.0,8.0,65,-99.99,,,0.00,1-wire,2013-04-25 15:29:00,
2013-04-25 10:35:00,44.4,32.8,30.18,WNW,284,4.0,6.0,64,-99.99,,,0.00,1-wire,2013-04-25 15:35:00,
2013-04-25 10:40:00,45.5,32.8,30.18,WNW,287,5.0,11.0,61,-99.99,,,0.00,1-wire,2013-04-25 15:40:00,
2013-04-25 10:45:00,45.3,32.1,30.18,WNW,287,5.0,9.0,60,-99.99,,,0.00,1-wire,2013-04-25 15:45:00,
2013-04-25 10:50:00,44.7,31.8,30.19,WNW,287,2.0,6.0,60,-99.99,,,0.00,1-wire,2013-04-25 15:50:00,
2013-04-25 10:55:00,45.1,31.3,30.19,WNW,297,5.0,13.0,58,-99.99,,,0.00,1-wire,2013-04-25 15:55:00,
2013-04-25 11:00:00,45.6,31.4,30.19,WNW,297,4.0,8.0,57,-99.99,,,0.00,1-wire,2013-04-25 16:00:00,
2013-04-25 11:05:00,45.2,31.6,30.18,WNW,297,6.0,10.0,59,-99.99,,,0.00,1-wire,2013-04-25 16:05:00,
2013-04-25 11:10:00,45.2,31.4,30.19,WNW,285,4.0,11.0,58,-99.99,,,0.00,1-wire,2013-04-25 16:10:00,
2013-04-25 11:15:00,47.0,32.0,30.18,WNW,285,6.0,14.0,56,-99.99,,,0.00,1-wire,2013-04-25 16:15:00,
2013-04-25 11:20:00,45.8,31.1,30.19,WNW,285,3.0,9.0,56,-99.99,,,0.00,1-wire,2013-04-25 16:20:00,
2013-04-25 11:25:00,44.5,29.8,30.19,WNW,294,5.0,11.0,56,-99.99,,,0.00,1-wire,2013-04-25 16:25:00,
2013-04-25 11:30:00,45.4,29.8,30.18,WNW,294,3.0,6.0,54,-99.99,,,0.00,1-wire,2013-04-25 16:30:00,
2013-04-25 11:35:00,45.9,29.8,30.19,WNW,294,7.0,11.0,53,-99.99,,,0.00,1-wire,2013-04-25 16:35:00,
2013-04-25 11:40:00,47.1,30.1,30.19,WNW,293,5.0,8.0,51,-99.99,,,0.00,1-wire,2013-04-25 16:40:00,
2013-04-25 11:45:00,48.6,29.9,30.19,WNW,293,8.0,13.0,48,-99.99,,,0.00,1-wire,2013-04-25 16:45:00,
2013-04-25 11:50:00,48.3,30.1,30.19,WNW,293,6.0,10.0,49,-99.99,,,0.00,1-wire,2013-04-25 16:50:00,
2013-04-25 11:55:00,46.5,29.6,30.20,WNW,286,7.0,13.0,52,-99.99,,,0.00,1-wire,2013-04-25 16:55:00,
2013-04-25 12:00:00,46.0,30.0,30.20,WNW,286,5.0,9.0,53,-99.99,,,0.00,1-wire,2013-04-25 17:00:00,
2013-04-25 12:05:00,46.5,30.0,30.20,WNW,286,3.0,6.0,52,-99.99,,,0.00,1-wire,2013-04-25 17:05:00,
2013-04-25 12:10:00,48.6,29.2,30.20,WNW,303,2.0,6.0,47,-99.99,,,0.00,1-wire,2013-04-25 17:10:00,
2013-04-25 12:15:00,47.3,28.3,30.20,WNW,303,5.0,11.0,47,-99.99,,,0.00,1-wire,2013-04-25 17:15:00,
2013-04-25 12:20:00,47.1,29.5,30.20,WNW,303,4.0,8.0,50,-99.99,,,0.00,1-wire,2013-04-25 17:20:00,
2013-04-25 12:25:00,47.9,30.0,30.20,NW,312,2.0,3.0,50,-99.99,,,0.00,1-wire,2013-04-25 17:25:00,
2013-04-25 12:30:00,48.1,28.0,30.20,NW,312,5.0,9.0,45,-99.99,,,0.00,1-wire,2013-04-25 17:30:00,
2013-04-25 12:36:00,48.7,28.7,30.20,NW,305,3.0,6.0,46,-99.99,,,0.00,1-wire,2013-04-25 17:36:00,
2013-04-25 12:41:00,49.1,28.9,30.20,NW,305,5.0,9.0,45,-99.99,,,0.00,1-wire,2013-04-25 17:41:00,
2013-04-25 12:47:00,49.4,28.5,30.20,NW,305,2.0,6.0,44,-99.99,,,0.00,1-wire,2013-04-25 17:47:00,
2013-04-25 12:52:00,50.6,29.9,30.20,NW,305,2.0,6.0,45,-99.99,,,0.00,1-wire,2013-04-25 17:52:00,
2013-04-25 12:58:00,50.4,29.6,30.21,NW,305,5.0,8.0,45,-99.99,,,0.00,1-wire,2013-04-25 17:58:00,
2013-04-25 13:03:00,49.5,28.1,30.21,NW,305,5.0,9.0,43,-99.99,,,0.00,1-wire,2013-04-25 18:03:00,
2013-04-25 13:09:00,50.4,29.1,30.22,WNW,293,5.0,13.0,44,-99.99,,,0.00,1-wire,2013-04-25 18:09:00,
2013-04-25 13:14:00,48.5,27.6,30.21,WNW,293,4.0,10.0,44,-99.99,,,0.00,1-wire,2013-04-25 18:14:00,
2013-04-25 13:19:00,49.7,28.1,30.21,WNW,293,6.0,11.0,43,-99.99,,,0.00,1-wire,2013-04-25 18:19:00,
2013-04-25 13:24:00,50.8,28.8,30.21,WNW,297,4.0,8.0,42,-99.99,,,0.00,1-wire,2013-04-25 18:24:00,
2013-04-25 13:29:00,51.7,29.3,30.22,WNW,297,5.0,9.0,42,-99.99,,,0.00,1-wire,2013-04-25 18:29:00,
2013-04-25 13:34:00,51.4,28.2,30.22,WNW,297,5.0,8.0,41,-99.99,,,0.00,1-wire,2013-04-25 18:34:00,
2013-04-25 13:39:00,51.6,29.4,30.22,WNW,291,1.0,3.0,42,-99.99,,,0.00,1-wire,2013-04-25 18:39:00,
2013-04-25 13:44:00,53.0,28.7,30.22,WNW,291,6.0,11.0,39,-99.99,,,0.00,1-wire,2013-04-25 18:44:00,
2013-04-25 13:49:00,49.6,27.8,30.22,WNW,291,4.0,9.0,43,-99.99,,,0.00,1-wire,2013-04-25 18:49:00,
2013-04-25 13:54:00,49.2,28.0,30.22,WNW,296,2.0,6.0,43,-99.99,,,0.00,1-wire,2013-04-25 18:54:00,
2013-04-25 13:59:00,49.2,27.8,30.22,WNW,296,5.0,9.0,43,-99.99,,,0.00,1-wire,2013-04-25 18:59:00,
2013-04-25 14:04:00,52.1,28.5,30.22,WNW,296,4.0,9.0,40,-99.99,,,0.00,1-wire,2013-04-25 19:04:00,
2013-04-25 14:09:00,52.2,28.6,30.23,WNW,292,6.0,11.0,40,-99.99,,,0.00,1-wire,2013-04-25 19:09:00,
2013-04-25 14:14:00,50.6,27.6,30.22,WNW,292,4.0,9.0,41,-99.99,,,0.00,1-wire,2013-04-25 19:14:00,
2013-04-25 14:19:00,52.2,27.4,30.23,WNW,292,4.0,9.0,38,-99.99,,,0.00,1-wire,2013-04-25 19:19:00,
2013-04-25 14:24:00,51.0,27.9,30.22,WNW,291,2.0,6.0,41,-99.99,,,0.00,1-wire,2013-04-25 19:24:00,
2013-04-25 14:29:00,51.1,27.8,30.22,WNW,291,2.0,6.0,40,-99.99,,,0.00,1-wire,2013-04-25 19:29:00,
2013-04-25 14:34:00,52.3,28.1,30.22,WNW,291,4.0,9.0,39,-99.99,,,0.00,1-wire,2013-04-25 19:34:00,
2013-04-25 14:39:00,53.2,28.0,30.22,West,269,3.0,6.0,38,-99.99,,,0.00,1-wire,2013-04-25 19:39:00,
2013-04-25 14:44:00,52.7,27.8,30.22,West,269,5.0,11.0,38,-99.99,,,0.00,1-wire,2013-04-25 19:44:00,
2013-04-25 14:49:00,51.3,28.1,30.22,West,269,3.0,6.0,41,-99.99,,,0.00,1-wire,2013-04-25 19:49:00,
2013-04-25 14:54:00,50.7,27.4,30.22,WNW,301,5.0,8.0,40,-99.99,,,0.00,1-wire,2013-04-25 19:54:00,
2013-04-25 14:59:00,52.6,27.8,30.22,WNW,301,2.0,6.0,38,-99.99,,,0.00,1-wire,2013-04-25 19:59:00,
2013-04-25 15:04:00,51.4,27.4,30.22,WNW,301,4.0,6.0,39,-99.99,,,0.00,1-wire,2013-04-25 20:04:00,
2013-04-25 15:09:00,50.4,27.8,30.22,WNW,297,5.0,9.0,41,-99.99,,,0.00,1-wire,2013-04-25 20:09:00,
2013-04-25 15:14:00,50.5,27.6,30.22,WNW,297,5.0,9.0,41,-99.99,,,0.00,1-wire,2013-04-25 20:14:00,
2013-04-25 15:20:00,51.7,28.4,30.22,WNW,297,2.0,3.0,40,-99.99,,,0.00,1-wire,2013-04-25 20:20:00,
2013-04-25 15:25:00,50.3,27.4,30.22,NW,309,5.0,9.0,41,-99.99,,,0.00,1-wire,2013-04-25 20:25:00,
2013-04-25 15:30:00,50.3,27.4,30.22,NW,309,4.0,6.0,41,-99.99,,,0.00,1-wire,2013-04-25 20:30:00,
2013-04-25 15:35:00,49.7,27.0,30.21,NW,309,5.0,14.0,41,-99.99,,,0.00,1-wire,2013-04-25 20:35:00,
2013-04-25 15:40:00,52.0,28.4,30.22,West,273,4.0,6.0,40,-99.99,,,0.00,1-wire,2013-04-25 20:40:00,
2013-04-25 15:45:00,50.7,27.7,30.22,West,273,2.0,6.0,41,-99.99,,,0.00,1-wire,2013-04-25 20:45:00,
2013-04-25 15:50:00,51.8,27.9,30.21,West,273,1.0,3.0,39,-99.99,,,0.00,1-wire,2013-04-25 20:50:00,
2013-04-25 15:56:00,52.5,28.6,30.21,West,259,2.0,6.0,40,-99.99,,,0.00,1-wire,2013-04-25 20:56:00,
2013-04-25 16:01:00,52.3,27.5,30.22,West,259,4.0,8.0,38,-99.99,,,0.00,1-wire,2013-04-25 21:01:00,
2013-04-25 16:07:00,52.4,27.6,30.22,West,272,2.0,6.0,38,-99.99,,,0.00,1-wire,2013-04-25 21:07:00,
2013-04-25 16:12:00,52.2,28.0,30.22,West,272,0.0,3.0,39,-99.99,,,0.00,1-wire,2013-04-25 21:12:00,
2013-04-25 16:18:00,52.7,28.3,30.22,West,272,3.0,6.0,39,-99.99,,,0.00,1-wire,2013-04-25 21:18:00,
2013-04-25 16:24:00,53.3,27.2,30.22,West,275,1.0,3.0,36,-99.99,,,0.00,1-wire,2013-04-25 21:24:00,
2013-04-25 16:29:00,52.5,27.2,30.22,West,275,2.0,6.0,37,-99.99,,,0.00,1-wire,2013-04-25 21:29:00,
2013-04-25 16:35:00,52.6,27.9,30.21,West,275,1.0,3.0,38,-99.99,,,0.00,1-wire,2013-04-25 21:35:00,
2013-04-25 16:40:00,52.6,28.9,30.22,West,259,2.0,6.0,40,-99.99,,,0.00,1-wire,2013-04-25 21:40:00,
2013-04-25 16:45:00,53.6,28.2,30.22,West,259,4.0,8.0,37,-99.99,,,0.00,1-wire,2013-04-25 21:45:00,
2013-04-25 16:50:00,52.7,28.3,30.22,West,259,1.0,3.0,39,-99.99,,,0.00,1-wire,2013-04-25 21:50:00,
2013-04-25 16:55:00,52.4,27.8,30.22,West,263,4.0,9.0,38,-99.99,,,0.00,1-wire,2013-04-25 21:55:00,
2013-04-25 17:00:00,52.8,28.2,30.22,West,263,4.0,6.0,38,-99.99,,,0.00,1-wire,2013-04-25 22:00:00,
2013-04-25 17:05:00,52.8,28.5,30.22,West,263,4.0,9.0,39,-99.99,,,0.00,1-wire,2013-04-25 22:05:00,
2013-04-25 17:10:00,52.8,28.3,30.22,West,260,2.0,3.0,39,-99.99,,,0.00,1-wire,2013-04-25 22:10:00,
2013-04-25 17:15:00,53.7,27.6,30.22,West,260,5.0,8.0,36,-99.99,,,0.00,1-wire,2013-04-25 22:15:00,
2013-04-25 17:20:00,52.4,27.8,30.22,West,260,5.0,8.0,38,-99.99,,,0.00,1-wire,2013-04-25 22:20:00,
2013-04-25 17:25:00,51.7,28.0,30.22,WSW,244,4.0,9.0,40,-99.99,,,0.00,1-wire,2013-04-25 22:25:00,
2013-04-25 17:30:00,51.9,28.1,30.22,WSW,244,3.0,8.0,40,-99.99,,,0.00,1-wire,2013-04-25 22:30:00,
2013-04-25 17:35:00,52.6,27.9,30.22,WSW,244,5.0,9.0,38,-99.99,,,0.00,1-wire,2013-04-25 22:35:00,
2013-04-25 17:40:00,51.8,26.6,30.22,West,261,4.0,8.0,37,-99.99,,,0.00,1-wire,2013-04-25 22:40:00,
2013-04-25 17:45:00,52.7,26.1,30.22,West,261,5.0,9.0,35,-99.99,,,0.00,1-wire,2013-04-25 22:45:00,
2013-04-25 17:50:00,52.4,26.4,30.22,West,261,5.0,14.0,36,-99.99,,,0.00,1-wire,2013-04-25 22:50:00,
2013-04-25 17:55:00,51.9,27.6,30.22,WSW,250,5.0,11.0,39,-99.99,,,0.00,1-wire,2013-04-25 22:55:00,
2013-04-25 18:00:00,52.1,25.8,30.22,WSW,250,1.0,3.0,36,-99.99,,,0.00,1-wire,2013-04-25 23:00:00,
2013-04-25 18:05:00,52.1,27.0,30.22,WSW,250,4.0,8.0,38,-99.99,,,0.00,1-wire,2013-04-25 23:05:00,
2013-04-25 18:10:00,52.0,26.6,30.22,WSW,248,3.0,6.0,37,-99.99,,,0.00,1-wire,2013-04-25 23:10:00,
2013-04-25 18:15:00,51.6,26.1,30.22,WSW,248,5.0,9.0,37,-99.99,,,0.00,1-wire,2013-04-25 23:15:00,
2013-04-25 18:20:00,51.5,26.5,30.22,WSW,248,3.0,6.0,38,-99.99,,,0.00,1-wire,2013-04-25 23:20:00,
2013-04-25 18:25:00,51.5,26.7,30.22,WSW,253,5.0,9.0,38,-99.99,,,0.00,1-wire,2013-04-25 23:25:00,
2013-04-25 18:30:00,51.1,25.9,30.22,WSW,253,3.0,6.0,37,-99.99,,,0.00,1-wire,2013-04-25 23:30:00,
2013-04-25 18:35:00,50.9,25.9,30.22,WSW,253,4.0,8.0,37,-99.99,,,0.00,1-wire,2013-04-25 23:35:00,
2013-04-25 18:40:00,51.0,26.5,30.22,WSW,246,3.0,8.0,38,-99.99,,,0.00,1-wire,2013-04-25 23:40:00,
2013-04-25 18:45:00,50.6,26.4,30.22,WSW,246,3.0,6.0,39,-99.99,,,0.00,1-wire,2013-04-25 23:45:00,
2013-04-25 18:50:00,50.3,26.4,30.22,WSW,246,4.0,6.0,39,-99.99,,,0.00,1-wire,2013-04-25 23:50:00,
2013-04-25 18:56:00,50.0,25.6,30.22,WSW,245,5.0,11.0,38,-99.99,,,0.00,1-wire,2013-04-25 23:56:00,
2013-04-25 19:01:00,50.1,26.4,30.22,WSW,245,4.0,6.0,39,-99.99,,,0.00,1-wire,2013-04-26 00:01:00,
2013-04-25 19:07:00,50.2,26.5,30.22,SW,232,2.0,3.0,39,-99.99,,,0.00,1-wire,2013-04-26 00:07:00,
2013-04-25 19:12:00,50.0,26.2,30.22,SW,232,5.0,9.0,39,-99.99,,,0.00,1-wire,2013-04-26 00:12:00,
2013-04-25 19:18:00,49.7,26.3,30.22,SW,232,2.0,6.0,40,-99.99,,,0.00,1-wire,2013-04-26 00:18:00,
2013-04-25 19:24:00,49.3,25.8,30.22,WSW,237,3.0,6.0,40,-99.99,,,0.00,1-wire,2013-04-26 00:24:00,
2013-04-25 19:29:00,49.4,26.2,30.22,WSW,237,1.0,3.0,40,-99.99,,,0.00,1-wire,2013-04-26 00:29:00,
2013-04-25 19:34:00,49.1,26.3,30.22,WSW,237,4.0,6.0,41,-99.99,,,0.00,1-wire,2013-04-26 00:34:00,
2013-04-25 19:39:00,48.9,26.9,30.22,SW,236,0.0,3.0,42,-99.99,,,0.00,1-wire,2013-04-26 00:39:00,
2013-04-25 19:44:00,48.5,26.1,30.21,SW,236,2.0,3.0,41,-99.99,,,0.00,1-wire,2013-04-26 00:44:00,
2013-04-25 19:49:00,48.3,26.5,30.21,SW,236,0.0,0.0,42,-99.99,,,0.00,1-wire,2013-04-26 00:49:00,
2013-04-25 19:54:00,48.4,26.7,30.22,SW,235,0.0,3.0,43,-99.99,,,0.00,1-wire,2013-04-26 00:54:00,
2013-04-25 20:00:00,48.1,27.3,30.22,SW,235,0.0,0.0,44,-99.99,,,0.00,1-wire,2013-04-26 01:00:00,
2013-04-25 20:05:00,47.5,27.3,30.22,SW,235,0.0,0.0,45,-99.99,,,0.00,1-wire,2013-04-26 01:05:00,
2013-04-25 20:10:00,47.4,27.8,30.22,SW,229,0.0,0.0,46,-99.99,,,0.00,1-wire,2013-04-26 01:10:00,
2013-04-25 20:15:00,46.9,27.8,30.22,SW,229,0.0,0.0,47,-99.99,,,0.00,1-wire,2013-04-26 01:15:00,
2013-04-25 20:20:00,46.6,27.9,30.22,SW,229,0.0,0.0,48,-99.99,,,0.00,1-wire,2013-04-26 01:20:00,
2013-04-25 20:25:00,46.5,27.8,30.22,SW,231,0.0,0.0,48,-99.99,,,0.00,1-wire,2013-04-26 01:25:00,
2013-04-25 20:30:00,46.1,27.9,30.22,SW,231,0.0,0.0,49,-99.99,,,0.00,1-wire,2013-04-26 01:30:00,
2013-04-25 20:35:00,45.7,28.0,30.23,SW,231,0.0,0.0,50,-99.99,,,0.00,1-wire,2013-04-26 01:35:00,
2013-04-25 20:40:00,45.0,27.7,30.23,SW,225,0.0,0.0,50,-99.99,,,0.00,1-wire,2013-04-26 01:40:00,
2013-04-25 20:45:00,45.4,28.3,30.23,SW,225,0.0,0.0,51,-99.99,,,0.00,1-wire,2013-04-26 01:45:00,
2013-04-25 20:50:00,44.9,27.7,30.23,SW,225,0.0,0.0,51,-99.99,,,0.00,1-wire,2013-04-26 01:50:00,
2013-04-25 20:55:00,44.4,27.9,30.23,SW,227,0.0,0.0,52,-99.99,,,0.00,1-wire,2013-04-26 01:55:00,
2013-04-25 21:00:00,44.4,27.8,30.24,SW,227,0.0,0.0,52,-99.99,,,0.00,1-wire,2013-04-26 02:00:00,
2013-04-25 21:05:00,44.2,27.9,30.24,SW,227,0.0,0.0,52,-99.99,,,0.00,1-wire,2013-04-26 02:05:00,
2013-04-25 21:10:00,43.6,27.6,30.24,WSW,246,0.0,0.0,53,-99.99,,,0.00,1-wire,2013-04-26 02:10:00,
2013-04-25 21:15:00,43.6,27.5,30.24,WSW,246,0.0,0.0,53,-99.99,,,0.00,1-wire,2013-04-26 02:15:00,
2013-04-25 21:20:00,43.2,27.6,30.25,WSW,246,0.0,0.0,54,-99.99,,,0.00,1-wire,2013-04-26 02:20:00,
2013-04-25 21:26:00,43.2,27.7,30.25,WSW,238,0.0,0.0,54,-99.99,,,0.00,1-wire,2013-04-26 02:26:00,
2013-04-25 21:31:00,42.7,27.3,30.25,WSW,238,0.0,0.0,54,-99.99,,,0.00,1-wire,2013-04-26 02:31:00,
2013-04-25 21:36:00,42.5,27.4,30.25,SW,234,0.0,0.0,55,-99.99,,,0.00,1-wire,2013-04-26 02:36:00,
2013-04-25 21:41:00,42.5,27.7,30.25,SW,234,0.0,0.0,56,-99.99,,,0.00,1-wire,2013-04-26 02:41:00,
2013-04-25 21:46:00,42.4,28.1,30.25,SW,234,0.0,0.0,56,-99.99,,,0.00,1-wire,2013-04-26 02:46:00,
2013-04-25 21:51:00,42.4,28.2,30.25,SW,235,0.0,0.0,57,-99.99,,,0.00,1-wire,2013-04-26 02:51:00,
2013-04-25 21:56:00,42.4,28.3,30.26,SW,235,0.0,0.0,57,-99.99,,,0.00,1-wire,2013-04-26 02:56:00,
2013-04-25 22:02:00,42.1,28.5,30.26,SW,235,0.0,0.0,58,-99.99,,,0.00,1-wire,2013-04-26 03:02:00,
2013-04-25 22:07:00,41.9,28.1,30.26,SSW,206,0.0,0.0,58,-99.99,,,0.00,1-wire,2013-04-26 03:07:00,
2013-04-25 22:13:00,41.8,28.2,30.26,SSW,206,0.0,0.0,58,-99.99,,,0.00,1-wire,2013-04-26 03:13:00,
2013-04-25 22:18:00,41.5,28.3,30.27,SSW,206,0.0,0.0,59,-99.99,,,0.00,1-wire,2013-04-26 03:18:00,
2013-04-25 22:23:00,41.3,28.2,30.27,SSW,212,0.0,0.0,59,-99.99,,,0.00,1-wire,2013-04-26 03:23:00,
2013-04-25 22:29:00,41.3,28.4,30.27,SSW,212,0.0,0.0,60,-99.99,,,0.00,1-wire,2013-04-26 03:29:00,
2013-04-25 22:34:00,41.2,28.7,30.27,SSW,212,0.0,0.0,61,-99.99,,,0.00,1-wire,2013-04-26 03:34:00,
2013-04-25 22:40:00,41.1,28.5,30.27,SW,224,0.0,0.0,61,-99.99,,,0.00,1-wire,2013-04-26 03:40:00,
2013-04-25 22:45:00,40.6,28.4,30.27,SW,224,0.0,0.0,61,-99.99,,,0.00,1-wire,2013-04-26 03:45:00,
2013-04-25 22:50:00,40.5,28.7,30.27,SW,224,0.0,0.0,62,-99.99,,,0.00,1-wire,2013-04-26 03:50:00,
2013-04-25 22:55:00,40.3,28.6,30.27,SW,215,0.0,0.0,63,-99.99,,,0.00,1-wire,2013-04-26 03:55:00,
2013-04-25 23:00:00,40.3,28.3,30.27,SW,215,0.0,0.0,62,-99.99,,,0.00,1-wire,2013-04-26 04:00:00,
2013-04-25 23:01:00,40.3,28.3,30.26,SW,215,0.0,0.0,62,-99.99,,,0.00,1-wire,2013-04-26 04:01:00,
2013-04-25 23:03:00,40.3,28.2,30.26,SW,215,0.0,0.0,62,-99.99,,,0.00,1-wire,2013-04-26 04:03:00,
2013-04-25 23:04:00,40.3,28.1,30.26,SW,215,0.0,0.0,61,-99.99,,,0.00,1-wire,2013-04-26 04:04:00,
2013-04-25 23:07:00,40.0,28.2,30.26,SSW,204,0.0,0.0,62,-99.99,,,0.00,1-wire,2013-04-26 04:07:00,
2013-04-25 23:09:00,40.0,28.2,30.27,SSW,204,0.0,0.0,62,-99.99,,,0.00,1-wire,2013-04-26 04:09:00,
2013-04-25 23:14:00,40.1,28.2,30.26,SSW,204,0.0,0.0,62,-99.99,,,0.00,1-wire,2013-04-26 04:14:00,
2013-04-25 23:19:00,39.9,28.3,30.27,SSW,204,0.0,0.0,63,-99.99,,,0.00,1-wire,2013-04-26 04:19:00,
2013-04-25 23:24:00,40.0,28.3,30.26,SSW,204,0.0,0.0,63,-99.99,,,0.00,1-wire,2013-04-26 04:24:00,
2013-04-25 23:29:00,39.8,27.9,30.27,SSW,204,0.0,0.0,62,-99.99,,,0.00,1-wire,2013-04-26 04:29:00,
2013-04-25 23:34:00,39.9,27.7,30.26,SSW,204,0.0,0.0,61,-99.99,,,0.00,1-wire,2013-04-26 04:34:00,
2013-04-25 23:39:00,39.8,27.8,30.27,SSW,205,0.0,0.0,62,-99.99,,,0.00,1-wire,2013-04-26 04:39:00,
2013-04-25 23:44:00,39.9,27.3,30.27,SSW,205,0.0,0.0,60,-99.99,,,0.00,1-wire,2013-04-26 04:44:00,
2013-04-25 23:49:00,40.2,26.6,30.26,SSW,205,0.0,0.0,58,-99.99,,,0.00,1-wire,2013-04-26 04:49:00,
2013-04-25 23:54:00,40.3,26.8,30.26,SSW,204,0.0,0.0,58,-99.99,,,0.00,1-wire,2013-04-26 04:54:00,
2013-04-25 23:59:00,40.6,26.9,30.26,SSW,204,0.0,0.0,58,-99.99,,,0.00,1-wire,2013-04-26 04:59:00,